TimeHST,TemperatureF,Dew PointF,Humidity,Sea Level PressureIn,VisibilityMPH,Wind Direction,Wind SpeedMPH,Gust SpeedMPH,PrecipitationIn,Events,Conditions,WindDirDegrees,DateUTC
12:26 AM,71.6,64.4,78,30.14,9.0,NE,23.0,38.0,0.00,Rain,Light Rain,50,2012-12-14 10:26:00
12:54 AM,71.1,64.0,78,30.14,10.0,NE,25.3,36.8,0.00,,Mostly Cloudy,40,2012-12-14 10:54:00
1:20 AM,69.8,64.4,83,30.13,7.0,NE,21.9,36.8,0.00,Rain,Light Rain,50,2012-12-14 11:20:00
1:45 AM,71.6,64.4,78,30.13,10.0,NE,15.0,28.8,0.00,Rain,Light Rain,50,2012-12-14 11:45:00
1:54 AM,71.1,64.0,78,30.13,6.0,NE,20.7,27.6,0.01,Rain,Light Rain,50,2012-12-14 11:54:00
2:20 AM,69.8,64.4,83,30.12,7.0,NE,20.7,35.7,0.00,Rain,Light Rain,50,2012-12-14 12:20:00
2:27 AM,69.8,62.6,78,30.12,10.0,NE,19.6,35.7,0.00,Rain,Light Rain,50,2012-12-14 12:27:00
2:54 AM,69.1,64.0,84,30.11,8.0,NE,23.0,38.0,0.00,Rain,Light Rain,40,2012-12-14 12:54:00
3:32 AM,71.6,62.6,73,30.10,10.0,NE,27.6,42.6,0.00,,Scattered Clouds,50,2012-12-14 13:32:00
3:54 AM,72.0,61.0,68,30.11,10.0,NE,17.3,36.8,0.00,,Partly Cloudy,50,2012-12-14 13:54:00
4:54 AM,72.0,61.0,68,30.11,10.0,NE,18.4,27.6,N/A,,Scattered Clouds,50,2012-12-14 14:54:00
5:54 AM,72.0,61.0,68,30.12,10.0,NE,19.6,27.6,N/A,,Mostly Cloudy,50,2012-12-14 15:54:00
6:54 AM,73.0,62.1,68,30.12,10.0,NE,26.5,36.8,N/A,,Overcast,50,2012-12-14 16:54:00
7:54 AM,73.0,62.1,68,30.15,10.0,ENE,23.0,29.9,N/A,,Mostly Cloudy,60,2012-12-14 17:54:00
8:54 AM,73.9,61.0,64,30.17,10.0,ENE,23.0,31.1,N/A,,Partly Cloudy,60,2012-12-14 18:54:00
9:54 AM,77.0,60.1,56,30.17,10.0,ENE,24.2,35.7,N/A,,Partly Cloudy,60,2012-12-14 19:54:00
10:54 AM,78.1,62.1,58,30.17,10.0,NE,19.6,31.1,0.00,,Partly Cloudy,50,2012-12-14 20:54:00
11:54 AM,79.0,63.0,58,30.16,10.0,NE,12.7,28.8,0.00,,Scattered Clouds,50,2012-12-14 21:54:00
12:54 PM,77.0,63.0,62,30.14,10.0,NE,18.4,31.1,0.00,,Mostly Cloudy,50,2012-12-14 22:54:00
1:54 PM,80.1,63.0,56,30.11,10.0,ENE,20.7,27.6,N/A,,Scattered Clouds,60,2012-12-14 23:54:00
2:54 PM,79.0,62.1,56,30.09,10.0,ENE,23.0,28.8,N/A,,Partly Cloudy,60,2012-12-15 00:54:00
3:54 PM,78.1,57.9,50,30.08,10.0,NE,17.3,31.1,N/A,,Clear,40,2012-12-15 01:54:00
4:54 PM,75.9,59.0,56,30.10,10.0,NE,16.1,27.6,N/A,,Clear,50,2012-12-15 02:54:00
5:54 PM,73.0,63.0,71,30.12,10.0,NE,17.3,27.6,N/A,,Scattered Clouds,50,2012-12-15 03:54:00
6:54 PM,73.0,63.0,71,30.13,10.0,NE,15.0,26.5,N/A,,Clear,50,2012-12-15 04:54:00
7:54 PM,73.0,62.1,68,30.14,10.0,NE,18.4,28.8,N/A,,Clear,50,2012-12-15 05:54:00
8:54 PM,73.0,62.1,68,30.15,10.0,NE,15.0,23.0,N/A,,Clear,50,2012-12-15 06:54:00
9:54 PM,71.1,64.0,78,30.15,10.0,NE,10.4,25.3,0.00,Rain,Light Rain,40,2012-12-15 07:54:00
10:54 PM,71.1,64.9,81,30.15,10.0,NE,15.0,24.2,0.00,,Mostly Cloudy,50,2012-12-15 08:54:00
11:54 PM,71.1,64.0,78,30.15,10.0,NE,20.7,32.2,N/A,,Mostly Cloudy,50,2012-12-15 09:54:00